When you browse on this site, cookies collect data to enhance your experience and personalize the content and advertising you see.
Visit our Privacy Policy to learn more. By continuing to use the site, you agree to this use of cookies and data.
  • în România
  • Lista ţărilor
  • Pe 7 zile
  • Temperatura apei
  • Hartă satelitară
  • Meteo pe hartă
  • Widget-uri
  • user-avatar
    Intrare

    Meteo pe oră la Wierzbno

    Astăzi, 22 Februarie, Vineri

    Timp Temperatura Precipitaţii Vânt Presiune Umiditate
    00:00 +5°C° 0.4 mm 5 m/s 744 mmHg 86%
    01:00 +4°C° 0 mm 4 m/s 743 mmHg 87%
    02:00 +4°C° 0.6 mm 4 m/s 743 mmHg 87%
    03:00 +3°C° 0.6 mm 5 m/s 743 mmHg 88%
    04:00 +3°C° 0.6 mm 5 m/s 743 mmHg 89%
    05:00 +2°C° 0.6 mm 6 m/s 744 mmHg 87%
    06:00 -1°C° 0.6 mm 7 m/s 745 mmHg 85%
    07:00 -2°C° 0.6 mm 8 m/s 746 mmHg 83%
    08:00 -3°C° 0.1 mm 7 m/s 747 mmHg 77%
    09:00 -3°C° 0.1 mm 7 m/s 749 mmHg 72%
    10:00 -4°C° 0.1 mm 7 m/s 750 mmHg 66%
    11:00 -3°C° 0 mm 7 m/s 751 mmHg 60%
    12:00 -3°C° 0 mm 7 m/s 752 mmHg 53%
    13:00 -3°C° 0 mm 7 m/s 753 mmHg 46%
    14:00 -3°C° 0 mm 7 m/s 753 mmHg 46%
    15:00 -4°C° 0 mm 6 m/s 754 mmHg 46%
    16:00 -4°C° 0 mm 6 m/s 754 mmHg 45%
    17:00 -5°C° 0 mm 6 m/s 755 mmHg 46%
    18:00 -6°C° 0 mm 5 m/s 756 mmHg 47%
    19:00 -6°C° 0 mm 5 m/s 756 mmHg 48%
    20:00 -6°C° 0 mm 5 m/s 757 mmHg 45%
    21:00 -6°C° 0 mm 5 m/s 758 mmHg 43%
    22:00 -6°C° 0 mm 5 m/s 758 mmHg 40%
    23:00 -6°C° 0 mm 5 m/s 759 mmHg 40%

    Mâine, 23 Februarie, Sâmbătă

    Timp Temperatura Precipitaţii Vânt Presiune Umiditate
    00:00 -5°C° 0 mm 4 m/s 759 mmHg 41%
    01:00 -7°C° 0 mm 4 m/s 759 mmHg 41%
    02:00 -7°C° 0 mm 4 m/s 759 mmHg 42%
    03:00 -7°C° 0 mm 4 m/s 760 mmHg 44%
    04:00 -6°C° 0 mm 3 m/s 760 mmHg 45%
    05:00 -6°C° 0 mm 3 m/s 760 mmHg 47%
    06:00 -6°C° 0 mm 3 m/s 760 mmHg 49%
    07:00 -6°C° 0 mm 3 m/s 760 mmHg 50%
    08:00 -6°C° 0 mm 3 m/s 760 mmHg 48%
    09:00 -5°C° 0 mm 3 m/s 761 mmHg 45%
    10:00 -5°C° 0 mm 3 m/s 761 mmHg 43%
    11:00 -4°C° 0 mm 3 m/s 761 mmHg 40%
    12:00 -2°C° 0 mm 3 m/s 761 mmHg 37%
    13:00 -2°C° 0 mm 3 m/s 761 mmHg 34%
    14:00 -2°C° 0 mm 2 m/s 760 mmHg 35%
    15:00 -2°C° 0 mm 2 m/s 760 mmHg 35%
    16:00 -2°C° 0 mm 2 m/s 760 mmHg 36%
    17:00 0°C° 0 mm 1 m/s 760 mmHg 40%
    18:00 -1°C° 0 mm 1 m/s 760 mmHg 43%
    19:00 -2°C° 0 mm 1 m/s 760 mmHg 47%
    20:00 -2°C° 0 mm 1 m/s 760 mmHg 48%
    21:00 -2°C° 0 mm 1 m/s 760 mmHg 48%
    22:00 -3°C° 0 mm 0 m/s 760 mmHg 49%
    23:00 -2°C° 0 mm 1 m/s 760 mmHg 49%

    Poimâine, 24 Februarie, Duminică

    Timp Temperatura Precipitaţii Vânt Presiune Umiditate
    00:00 -2°C° 0 mm 1 m/s 760 mmHg 49%
    01:00 -2°C° 0 mm 1 m/s 760 mmHg 49%
    02:00 -2°C° 0 mm 1 m/s 759 mmHg 48%
    03:00 -2°C° 0 mm 1 m/s 759 mmHg 47%
    04:00 -2°C° 0 mm 0 m/s 759 mmHg 46%
    05:00 -1°C° 0 mm 1 m/s 759 mmHg 45%
    06:00 -1°C° 0 mm 1 m/s 759 mmHg 45%
    07:00 -1°C° 0 mm 1 m/s 759 mmHg 44%
    08:00 0°C° 0 mm 1 m/s 759 mmHg 40%
    09:00 -1°C° 0 mm 2 m/s 759 mmHg 35%
    10:00 +1°C° 0 mm 2 m/s 759 mmHg 30%
    11:00 +2°C° 0 mm 2 m/s 758 mmHg 28%
    12:00 +3°C° 0 mm 2 m/s 758 mmHg 26%
    13:00 +5°C° 0 mm 2 m/s 758 mmHg 24%
    14:00 +4°C° 0 mm 2 m/s 758 mmHg 29%
    15:00 +4°C° 0 mm 2 m/s 758 mmHg 33%
    16:00 +4°C° 0 mm 2 m/s 757 mmHg 37%
    17:00 +3°C° 0 mm 2 m/s 758 mmHg 40%
    18:00 +1°C° 0 mm 2 m/s 758 mmHg 43%
    19:00 -1°C° 0 mm 2 m/s 758 mmHg 46%
    20:00 -1°C° 0 mm 2 m/s 758 mmHg 46%
    21:00 -1°C° 0 mm 2 m/s 758 mmHg 47%
    22:00 -1°C° 0 mm 3 m/s 758 mmHg 48%
    23:00 -1°C° 0 mm 3 m/s 758 mmHg 49%

    25 Februarie, Luni

    Timp Temperatura Precipitaţii Vânt Presiune Umiditate
    00:00 -1°C° 0 mm 3 m/s 758 mmHg 50%
    01:00 -1°C° 0 mm 3 m/s 758 mmHg 51%
    02:00 -1°C° 0 mm 3 m/s 758 mmHg 52%
    03:00 -1°C° 0 mm 3 m/s 757 mmHg 53%
    04:00 -2°C° 0 mm 4 m/s 757 mmHg 54%
    05:00 -2°C° 0 mm 4 m/s 757 mmHg 55%
    06:00 -2°C° 0 mm 4 m/s 757 mmHg 57%
    07:00 -2°C° 0 mm 4 m/s 757 mmHg 58%
    08:00 -1°C° 0 mm 4 m/s 757 mmHg 57%
    09:00 +1°C° 0 mm 4 m/s 757 mmHg 55%
    10:00 +3°C° 0 mm 4 m/s 757 mmHg 53%
    11:00 +4°C° 0 mm 4 m/s 757 mmHg 55%
    12:00 +5°C° 0 mm 4 m/s 756 mmHg 56%
    13:00 +6°C° 0 mm 4 m/s 756 mmHg 58%
    14:00 +6°C° 0 mm 4 m/s 756 mmHg 62%
    15:00 +5°C° 0 mm 4 m/s 756 mmHg 66%
    16:00 +5°C° 0 mm 3 m/s 756 mmHg 71%
    17:00 +4°C° 0 mm 3 m/s 756 mmHg 77%
    18:00 +4°C° 0 mm 2 m/s 756 mmHg 83%
    19:00 +3°C° 0 mm 2 m/s 756 mmHg 89%
    20:00 +2°C° 0 mm 2 m/s 756 mmHg 90%
    21:00 +2°C° 0 mm 2 m/s 756 mmHg 91%
    22:00 +2°C° 0 mm 2 m/s 756 mmHg 92%
    23:00 +1°C° 0 mm 2 m/s 755 mmHg 92%

    26 Februarie, Marţi

    Timp Temperatura Precipitaţii Vânt Presiune Umiditate
    00:00 0°C° 0 mm 3 m/s 755 mmHg 92%
    01:00 0°C° 0 mm 3 m/s 754 mmHg 92%
    02:00 0°C° 0 mm 3 m/s 754 mmHg 92%
    03:00 -1°C° 0 mm 4 m/s 753 mmHg 91%
    04:00 0°C° 0 mm 4 m/s 753 mmHg 91%
    05:00 0°C° 0 mm 4 m/s 752 mmHg 89%
    06:00 0°C° 0 mm 5 m/s 752 mmHg 87%
    07:00 0°C° 0 mm 5 m/s 751 mmHg 85%
    08:00 +1°C° 0 mm 6 m/s 751 mmHg 80%
    09:00 +2°C° 0 mm 6 m/s 750 mmHg 75%
    10:00 +2°C° 0 mm 6 m/s 750 mmHg 70%
    11:00 +2°C° 0.1 mm 6 m/s 750 mmHg 71%
    12:00 +3°C° 0.1 mm 6 m/s 750 mmHg 73%
    13:00 +3°C° 0.1 mm 6 m/s 750 mmHg 74%
    14:00 +3°C° 0 mm 6 m/s 749 mmHg 74%
    15:00 +4°C° 0 mm 6 m/s 749 mmHg 73%
    16:00 +4°C° 0 mm 6 m/s 749 mmHg 72%
    17:00 +3°C° 0 mm 6 m/s 749 mmHg 76%
    18:00 +2°C° 0 mm 6 m/s 749 mmHg 80%
    19:00 +2°C° 0 mm 5 m/s 750 mmHg 84%
    20:00 +1°C° 0 mm 5 m/s 750 mmHg 82%
    21:00 +1°C° 0 mm 5 m/s 750 mmHg 80%
    22:00 +1°C° 0 mm 5 m/s 750 mmHg 77%
    23:00 0°C° 0 mm 4 m/s 750 mmHg 78%

    27 Februarie, Miercuri

    Timp Temperatura Precipitaţii Vânt Presiune Umiditate
    00:00 0°C° 0 mm 4 m/s 750 mmHg 79%
    01:00 -1°C° 0 mm 4 m/s 750 mmHg 80%
    02:00 -1°C° 0 mm 4 m/s 750 mmHg 83%
    03:00 -1°C° 0 mm 3 m/s 750 mmHg 85%
    04:00 -1°C° 0 mm 3 m/s 750 mmHg 87%
    05:00 -1°C° 0 mm 3 m/s 751 mmHg 88%
    06:00 -1°C° 0 mm 3 m/s 751 mmHg 89%
    07:00 -1°C° 0 mm 3 m/s 751 mmHg 90%
    08:00 0°C° 0 mm 3 m/s 751 mmHg 83%
    09:00 +2°C° 0 mm 3 m/s 751 mmHg 75%
    10:00 +3°C° 0 mm 3 m/s 751 mmHg 67%
    11:00 +4°C° 0 mm 3 m/s 751 mmHg 61%
    12:00 +5°C° 0 mm 3 m/s 750 mmHg 55%
    13:00 +7°C° 0 mm 3 m/s 750 mmHg 49%
    14:00 +7°C° 0 mm 3 m/s 750 mmHg 49%
    15:00 +7°C° 0 mm 3 m/s 749 mmHg 50%
    16:00 +7°C° 0 mm 3 m/s 749 mmHg 51%
    17:00 +5°C° 0 mm 3 m/s 749 mmHg 56%
    18:00 +4°C° 0 mm 3 m/s 748 mmHg 62%
    19:00 +3°C° 0 mm 3 m/s 748 mmHg 67%
    20:00 +1°C° 0 mm 4 m/s 747 mmHg 66%
    21:00 +1°C° 0 mm 4 m/s 747 mmHg 65%
    22:00 +1°C° 0 mm 4 m/s 746 mmHg 64%
    23:00 +1°C° 0 mm 4 m/s 746 mmHg 61%
    Arată mai mult